FIN446 EFOU-EFHK

Flight info

Callsign FIN446
Flight time 0h 47m
Altitude 31000
Route MIKNU Y86 LUSEP
Aircraft A320/M-SDE3FGHIRWY/LB1

Departure

Time 2026-04-23 18:25
Airport Oulu Airport (EFOU)

Arrival

Time 2026-04-23 19:12
Airport Helsinki Vantaa Airport (EFHK)
Time Latitude Longitude Altitude Speed Heading
2026-04-23 17:53 64.92798 25.37350 41 ft 0 kts 30°
2026-04-23 18:18 64.92794 25.37345 41 ft 2 kts 31°
2026-04-23 18:18 64.92781 25.37327 41 ft 2 kts 29°
2026-04-23 18:18 64.92768 25.37309 41 ft 2 kts 30°
2026-04-23 18:18 64.92755 25.37291 41 ft 2 kts 30°
2026-04-23 18:19 64.92744 25.37270 41 ft 2 kts 68°
2026-04-23 18:19 64.92743 25.37236 41 ft 2 kts 107°
2026-04-23 18:19 64.92746 25.37221 41 ft 1 kts 124°
2026-04-23 18:19 64.92748 25.37213 41 ft 0 kts 120°
2026-04-23 18:21 64.92747 25.37219 41 ft 0 kts 119°
2026-04-23 18:21 64.92740 25.37250 41 ft 4 kts 116°
2026-04-23 18:22 64.92720 25.37334 41 ft 7 kts 120°
2026-04-23 18:22 64.92687 25.37467 41 ft 11 kts 120°
2026-04-23 18:22 64.92641 25.37643 38 ft 14 kts 121°
2026-04-23 18:22 64.92593 25.37830 37 ft 8 kts 120°
2026-04-23 18:23 64.92567 25.37905 37 ft 9 kts 141°
2026-04-23 18:23 64.92453 25.37724 37 ft 7 kts 240°
2026-04-23 18:24 64.92529 25.37332 41 ft 50 kts 300°
2026-04-23 18:24 64.92825 25.36153 41 ft 116 kts 300°
2026-04-23 18:24 64.93341 25.34180 172 ft 156 kts 302°
2026-04-23 18:25 64.93704 25.29586 1512 ft 159 kts 232°
2026-04-23 18:25 64.92722 25.28319 2068 ft 179 kts 190°
2026-04-23 18:25 64.91399 25.28690 2505 ft 201 kts 172°
2026-04-23 18:25 64.89976 25.29295 2980 ft 217 kts 173°
2026-04-23 18:26 64.88422 25.29873 3425 ft 238 kts 173°
2026-04-23 18:26 64.86729 25.30459 3948 ft 256 kts 173°
2026-04-23 18:26 64.84917 25.31056 4520 ft 273 kts 173°
2026-04-23 18:26 64.82991 25.31654 5123 ft 288 kts 173°
2026-04-23 18:27 64.81008 25.32263 5933 ft 294 kts 173°
2026-04-23 18:27 64.78973 25.32905 6789 ft 299 kts 172°
2026-04-23 18:27 64.76931 25.33556 7597 ft 304 kts 172°
2026-04-23 18:27 64.74831 25.34226 8422 ft 308 kts 173°
2026-04-23 18:28 64.72727 25.34895 9205 ft 312 kts 173°
2026-04-23 18:28 64.70551 25.35582 9971 ft 318 kts 173°
2026-04-23 18:28 64.68356 25.36272 10508 ft 331 kts 173°
2026-04-23 18:28 64.65995 25.36975 10882 ft 348 kts 176°
2026-04-23 18:29 64.63567 25.37117 11454 ft 356 kts 182°
2026-04-23 18:29 64.61112 25.36983 12137 ft 360 kts 184°
2026-04-23 18:29 64.58590 25.36833 12808 ft 365 kts 183°
2026-04-23 18:29 64.56050 25.36738 13437 ft 371 kts 183°
2026-04-23 18:30 64.53464 25.36691 14064 ft 376 kts 182°
2026-04-23 18:30 64.50849 25.36666 14638 ft 382 kts 182°
2026-04-23 18:30 64.48182 25.36660 15189 ft 388 kts 182°
2026-04-23 18:30 64.45482 25.36662 15797 ft 391 kts 183°
2026-04-23 18:31 64.42802 25.36327 16343 ft 394 kts 189°
2026-04-23 18:31 64.40042 25.35668 16842 ft 399 kts 190°
2026-04-23 18:31 64.37311 25.34962 17350 ft 404 kts 190°
2026-04-23 18:31 64.34506 25.34268 17855 ft 410 kts 190°
2026-04-23 18:32 64.31639 25.33596 18348 ft 415 kts 190°
2026-04-23 18:32 64.28767 25.32956 18837 ft 419 kts 190°
2026-04-23 18:32 64.25880 25.32329 19275 ft 425 kts 190°
2026-04-23 18:32 64.22929 25.31688 19728 ft 430 kts 190°
2026-04-23 18:33 64.19936 25.31052 20175 ft 435 kts 190°
2026-04-23 18:33 64.16930 25.30416 20627 ft 439 kts 191°
2026-04-23 18:33 64.13916 25.29778 21068 ft 444 kts 190°
2026-04-23 18:33 64.10805 25.29119 21484 ft 449 kts 191°
2026-04-23 18:34 64.07703 25.28459 21886 ft 454 kts 190°
2026-04-23 18:34 64.04569 25.27807 22271 ft 459 kts 191°
2026-04-23 18:34 64.01379 25.27128 22636 ft 465 kts 191°
2026-04-23 18:34 63.98161 25.26463 23042 ft 468 kts 191°
2026-04-23 18:35 63.94938 25.25789 23452 ft 472 kts 191°
2026-04-23 18:35 63.91680 25.25106 23835 ft 476 kts 191°
2026-04-23 18:35 63.88366 25.24418 24214 ft 480 kts 191°
2026-04-23 18:35 63.85028 25.23719 24569 ft 484 kts 191°
2026-04-23 18:36 63.81681 25.23020 24928 ft 487 kts 191°
2026-04-23 18:36 63.78336 25.22309 25288 ft 490 kts 191°
2026-04-23 18:36 63.74948 25.21589 25701 ft 491 kts 191°
2026-04-23 18:36 63.71575 25.20866 26046 ft 495 kts 191°
2026-04-23 18:37 63.68129 25.20143 26392 ft 498 kts 191°
2026-04-23 18:37 63.64672 25.19404 26744 ft 501 kts 191°
2026-04-23 18:37 63.61238 25.18685 27069 ft 504 kts 191°
2026-04-23 18:37 63.57751 25.17952 27377 ft 508 kts 191°
2026-04-23 18:38 63.54224 25.17220 27693 ft 511 kts 191°
2026-04-23 18:38 63.50721 25.16477 28030 ft 513 kts 191°
2026-04-23 18:38 63.47150 25.15739 28319 ft 517 kts 191°
2026-04-23 18:38 63.43570 25.14998 28599 ft 520 kts 191°
2026-04-23 18:39 63.39972 25.14244 28928 ft 522 kts 191°
2026-04-23 18:39 63.36370 25.13507 29326 ft 522 kts 191°
2026-04-23 18:39 63.32787 25.12766 29664 ft 523 kts 191°
2026-04-23 18:39 63.29182 25.12022 29956 ft 526 kts 191°
2026-04-23 18:40 63.25536 25.11284 30265 ft 528 kts 192°
2026-04-23 18:40 63.21915 25.10534 30582 ft 529 kts 191°
2026-04-23 18:40 63.18245 25.09778 30741 ft 531 kts 191°
2026-04-23 18:41 63.10932 25.08288 30745 ft 532 kts 191°
2026-04-23 18:41 63.03607 25.06816 30749 ft 531 kts 191°
2026-04-23 18:42 62.96270 25.05327 30749 ft 532 kts 191°
2026-04-23 18:42 62.88946 25.03870 30747 ft 532 kts 191°
2026-04-23 18:43 62.81598 25.02410 30752 ft 531 kts 191°
2026-04-23 18:43 62.74269 25.00947 30756 ft 531 kts 191°
2026-04-23 18:44 62.66980 24.99511 30757 ft 531 kts 191°
2026-04-23 18:44 62.59662 24.98084 30761 ft 530 kts 191°
2026-04-23 18:45 62.52377 24.96653 30762 ft 531 kts 191°
2026-04-23 18:45 62.45074 24.95219 30766 ft 531 kts 191°
2026-04-23 18:46 62.37730 24.93807 30771 ft 530 kts 190°
2026-04-23 18:46 62.30415 24.92400 30770 ft 530 kts 191°
2026-04-23 18:47 62.23127 24.90993 30770 ft 531 kts 190°
2026-04-23 18:47 62.15792 24.89602 30742 ft 532 kts 190°
2026-04-23 18:47 62.12116 24.88910 30494 ft 530 kts 190°
2026-04-23 18:48 62.08497 24.88229 30153 ft 528 kts 191°
2026-04-23 18:48 62.04865 24.87541 29710 ft 523 kts 191°
2026-04-23 18:48 62.01287 24.86859 29156 ft 521 kts 191°
2026-04-23 18:48 61.97665 24.86170 28524 ft 520 kts 190°
2026-04-23 18:49 61.94095 24.85491 27888 ft 519 kts 189°
2026-04-23 18:49 61.90529 24.84826 27439 ft 513 kts 189°
2026-04-23 18:49 61.87042 24.84178 26976 ft 507 kts 190°
2026-04-23 18:49 61.83534 24.83534 26621 ft 500 kts 189°
2026-04-23 18:50 61.81265 24.83116 26430 ft 498 kts 190°
2026-04-23 18:50 61.76675 24.82260 26039 ft 496 kts 190°
2026-04-23 18:50 61.73277 24.81631 25657 ft 492 kts 189°
2026-04-23 18:50 61.69895 24.81003 25221 ft 489 kts 189°
2026-04-23 18:51 61.66531 24.80380 24783 ft 485 kts 189°
2026-04-23 18:51 61.63243 24.79775 24336 ft 482 kts 189°
2026-04-23 18:51 61.59893 24.79161 23858 ft 478 kts 189°
2026-04-23 18:51 61.56636 24.78562 23398 ft 474 kts 189°
2026-04-23 18:52 61.53366 24.77966 22930 ft 470 kts 189°
2026-04-23 18:52 61.50172 24.77384 22467 ft 467 kts 188°
2026-04-23 18:52 61.46922 24.76794 21997 ft 463 kts 189°
2026-04-23 18:52 61.43756 24.76222 21543 ft 459 kts 189°
2026-04-23 18:53 61.40603 24.75649 21079 ft 455 kts 188°
2026-04-23 18:53 61.37490 24.75082 20621 ft 452 kts 188°
2026-04-23 18:53 61.34398 24.74523 20174 ft 448 kts 189°
2026-04-23 18:53 61.31296 24.73963 19717 ft 444 kts 188°
2026-04-23 18:54 61.28268 24.73417 19257 ft 440 kts 188°
2026-04-23 18:54 61.25236 24.72871 18800 ft 437 kts 188°
2026-04-23 18:54 61.22248 24.72338 18340 ft 434 kts 188°
2026-04-23 18:54 61.19275 24.71806 17877 ft 431 kts 188°
2026-04-23 18:55 61.16278 24.71271 17410 ft 427 kts 188°
2026-04-23 18:55 61.13349 24.70747 16948 ft 424 kts 188°
2026-04-23 18:55 61.10432 24.70230 16484 ft 421 kts 188°
2026-04-23 18:55 61.07552 24.69721 16033 ft 418 kts 188°
2026-04-23 18:56 61.05656 24.69383 15733 ft 416 kts 188°
2026-04-23 18:56 61.01828 24.68705 15126 ft 411 kts 188°
2026-04-23 18:56 60.99020 24.68210 14684 ft 408 kts 188°
2026-04-23 18:56 60.96205 24.67710 14231 ft 405 kts 187°
2026-04-23 18:57 60.93406 24.67217 13783 ft 402 kts 187°
2026-04-23 18:57 60.90647 24.66735 13335 ft 398 kts 187°
2026-04-23 18:57 60.87930 24.66262 12883 ft 394 kts 187°
2026-04-23 18:57 60.85232 24.65787 12432 ft 390 kts 187°
2026-04-23 18:58 60.82570 24.65319 11996 ft 385 kts 187°
2026-04-23 18:58 60.79910 24.64854 11558 ft 380 kts 187°
2026-04-23 18:58 60.77291 24.64399 11132 ft 375 kts 187°
2026-04-23 18:58 60.74746 24.63957 10714 ft 371 kts 187°
2026-04-23 18:59 60.72188 24.63516 10286 ft 366 kts 187°
2026-04-23 18:59 60.69682 24.63083 9984 ft 357 kts 187°
2026-04-23 18:59 60.67282 24.62668 9855 ft 343 kts 187°
2026-04-23 18:59 60.64941 24.62268 9705 ft 331 kts 187°
2026-04-23 19:00 60.62696 24.61879 9407 ft 325 kts 187°
2026-04-23 19:00 60.60461 24.61493 9077 ft 320 kts 187°
2026-04-23 19:00 60.58258 24.61109 8717 ft 317 kts 187°
2026-04-23 19:00 60.56084 24.60735 8389 ft 313 kts 187°
2026-04-23 19:01 60.53934 24.60691 8052 ft 309 kts 170°
2026-04-23 19:01 60.51935 24.62074 7781 ft 302 kts 154°
2026-04-23 19:01 60.50073 24.63957 7462 ft 298 kts 151°
2026-04-23 19:01 60.48264 24.65897 7136 ft 294 kts 151°
2026-04-23 19:02 60.47070 24.67197 7031 ft 288 kts 151°
2026-04-23 19:02 60.44804 24.69665 6741 ft 273 kts 151°
2026-04-23 19:02 60.43156 24.71462 6505 ft 262 kts 150°
2026-04-23 19:02 60.41567 24.73153 6232 ft 259 kts 156°
2026-04-23 19:03 60.39829 24.73831 5893 ft 256 kts 187°
2026-04-23 19:03 60.38182 24.72709 5608 ft 248 kts 219°
2026-04-23 19:03 60.36907 24.70530 5300 ft 243 kts 228°
2026-04-23 19:03 60.35709 24.68093 5012 ft 240 kts 230°
2026-04-23 19:04 60.34562 24.65668 4981 ft 240 kts 230°
2026-04-23 19:04 60.33430 24.63254 4882 ft 237 kts 231°
2026-04-23 19:04 60.32309 24.60853 4551 ft 238 kts 231°
2026-04-23 19:04 60.31169 24.58404 4357 ft 237 kts 231°
2026-04-23 19:05 60.30048 24.55991 4244 ft 238 kts 231°
2026-04-23 19:05 60.28926 24.53585 4111 ft 238 kts 231°
2026-04-23 19:05 60.27786 24.51151 3982 ft 237 kts 228°
2026-04-23 19:05 60.26418 24.49367 3841 ft 242 kts 199°
2026-04-23 19:06 60.24738 24.49226 3710 ft 244 kts 166°
2026-04-23 19:06 60.23240 24.50681 3591 ft 243 kts 145°
2026-04-23 19:06 60.21869 24.52692 3463 ft 242 kts 141°
2026-04-23 19:06 60.20552 24.54781 3335 ft 240 kts 136°
2026-04-23 19:07 60.19617 24.57422 3189 ft 232 kts 105°
2026-04-23 19:07 60.19313 24.60540 3059 ft 221 kts 93°
2026-04-23 19:07 60.19347 24.63498 2911 ft 210 kts 68°
2026-04-23 19:07 60.20041 24.65957 2781 ft 196 kts 47°
2026-04-23 19:08 60.20945 24.67880 2647 ft 189 kts 41°
2026-04-23 19:08 60.21877 24.69722 2514 ft 189 kts 42°
2026-04-23 19:08 60.22787 24.71609 2410 ft 187 kts 44°
2026-04-23 19:08 60.23642 24.73473 2337 ft 171 kts 45°
2026-04-23 19:09 60.24392 24.75140 2220 ft 151 kts 44°
2026-04-23 19:09 60.25069 24.76648 2006 ft 142 kts 44°
2026-04-23 19:09 60.25728 24.78105 1809 ft 141 kts 44°
2026-04-23 19:09 60.26392 24.79569 1622 ft 141 kts 44°
2026-04-23 19:10 60.27043 24.81010 1436 ft 140 kts 44°
2026-04-23 19:10 60.27707 24.82468 1228 ft 140 kts 44°
2026-04-23 19:10 60.28357 24.83913 1031 ft 140 kts 45°
2026-04-23 19:10 60.29004 24.85356 855 ft 139 kts 44°
2026-04-23 19:11 60.29665 24.86793 675 ft 139 kts 45°
2026-04-23 19:11 60.30315 24.88227 478 ft 139 kts 46°
2026-04-23 19:11 60.30964 24.89655 309 ft 139 kts 45°
2026-04-23 19:11 60.31604 24.91083 165 ft 135 kts 43°
2026-04-23 19:12 60.32001 24.91923 176 ft 107 kts 47°
2026-04-23 19:12 60.32408 24.92893 189 ft 44 kts 66°
2026-04-23 19:12 60.32479 24.93401 194 ft 26 kts 78°
2026-04-23 19:12 60.32516 24.93746 195 ft 18 kts 77°
2026-04-23 19:13 60.32563 24.93971 196 ft 17 kts 49°
2026-04-23 19:13 60.32647 24.94154 194 ft 18 kts 47°
2026-04-23 19:13 60.32735 24.94345 196 ft 18 kts 46°
2026-04-23 19:13 60.32818 24.94530 197 ft 17 kts 48°
2026-04-23 19:14 60.32899 24.94711 199 ft 17 kts 47°
2026-04-23 19:14 60.32975 24.94877 204 ft 14 kts 47°
2026-04-23 19:14 60.33049 24.95037 205 ft 15 kts 47°
2026-04-23 19:14 60.33122 24.95197 207 ft 15 kts 47°
2026-04-23 19:15 60.33196 24.95368 206 ft 16 kts 59°
2026-04-23 19:15 60.33176 24.95571 203 ft 17 kts 135°
2026-04-23 19:15 60.33084 24.95742 200 ft 18 kts 139°
2026-04-23 19:15 60.32974 24.95880 197 ft 18 kts 150°
2026-04-23 19:16 60.32864 24.96009 197 ft 17 kts 149°
2026-04-23 19:16 60.32756 24.96136 195 ft 18 kts 150°
2026-04-23 19:16 60.32647 24.96263 193 ft 15 kts 150°
2026-04-23 19:17 60.32493 24.96442 187 ft 14 kts 150°
2026-04-23 19:17 60.32394 24.96560 182 ft 15 kts 150°
2026-04-23 19:17 60.32317 24.96649 179 ft 10 kts 150°
2026-04-23 19:17 60.32300 24.96669 178 ft 1 kts 151°
2026-04-23 19:18 60.32288 24.96683 178 ft 2 kts 151°
2026-04-23 19:18 60.32263 24.96712 178 ft 5 kts 150°
2026-04-23 19:18 60.32218 24.96764 178 ft 9 kts 150°
2026-04-23 19:18 60.32151 24.96843 178 ft 12 kts 150°
2026-04-23 19:19 60.32027 24.96984 183 ft 9 kts 153°
2026-04-23 19:19 60.31970 24.97043 186 ft 9 kts 153°
2026-04-23 19:20 60.31863 24.97154 190 ft 8 kts 153°
2026-04-23 19:20 60.31810 24.97209 192 ft 9 kts 153°
2026-04-23 19:20 60.31748 24.97273 193 ft 10 kts 153°
2026-04-23 19:20 60.31681 24.97343 194 ft 10 kts 153°
2026-04-23 19:21 60.31612 24.97413 193 ft 10 kts 153°
2026-04-23 19:21 60.31558 24.97325 193 ft 3 kts 242°
2026-04-23 19:21 60.31557 24.97322 193 ft 0 kts 242°